Home   Weather   Medan   Past weeks

Flag for Indonesia Past Weather in Medan, North Sumatra, Indonesia — Yesterday and Last 2 Weeks

Now
86 °F

Broken clouds.


Feels Like: 95 °F
Forecast: 76 / 89 °F
Wind: 5 mph from West

Location: Medan / Polonia

Current Time: Sep 27, 2016 at 12:29:03 PM

Latest Report: Sep 27, 2016 at 11:00 AM


Visibility: 4 mi

Pressure: 29.83 "Hg

Humidity: 70%

Dew Point: 75 °F

Location of MedanLocation

Past Weather in Medan — Graph

°F

Medan Temperature Yesterday

Maximum temperature yesterday: 90 °F (at 11:00 AM)
Minimum temperature yesterday: 75 °F (at 12:00 AM)
Average temperature yesterday: 82 °F

High & Low Weather Summary for the Past Weeks

 TemperatureHumidityPressure
High91 °F (Sep 15, 12:30 PM)100% (Sep 12, 11:00 PM)29.89 "Hg (Sep 12, 11:00 PM)
Low72 °F (Sep 12, 9:00 PM)55% (Sep 26, 11:30 AM)29.65 "Hg (Sep 24, 3:30 PM)
Average82 °F83%29.79 "Hg
* Reported Sep 12 9:00 AM — Sep 27 9:00 AM, Medan, Weather by CustomWeather, © 2016

Note: Actual official high and low records may vary slightly from our data, if they occured in-between our weather recording intervals... More about our weather records

Advertising

Medan Weather History for the Previous 24 Hours

Scroll right to see more
 ConditionsComfort  
Time TempWeatherWind HumidityBarometerVisibility
9:00 AM
Tue, Sep 27
81 °FScattered clouds.2 mph89%29.86 "Hg3 mi
6:30 AM75 °FFog.3 mph100%29.80 "Hg1 mi
6:00 AM75 °FFog.5 mph100%29.77 "Hg2 mi
5:00 AM75 °FPassing clouds.3 mph100%29.77 "Hg3 mi
10:00 PM
Mon, Sep 26
77 °FThunderstorms. Partly cloudy.25 mph94%29.86 "Hg4 mi
9:30 PM79 °FThunderstorms. Passing clouds.9 mph89%29.83 "Hg2 mi
9:00 PM82 °FLight rain. Passing clouds.13 mph84%29.83 "Hg4 mi
8:30 PM82 °FPassing clouds.5 mph84%29.80 "HgN/A
8:00 PM82 °FPassing clouds.3 mph84%29.80 "Hg4 mi
7:30 PM82 °FPassing clouds.5 mph84%29.77 "Hg5 mi
7:00 PM84 °FPassing clouds.7 mph79%29.74 "Hg4 mi
6:30 PM84 °FPassing clouds.6 mph79%29.74 "Hg5 mi
6:00 PM86 °FPassing clouds.8 mph75%29.71 "HgN/A
5:30 PM86 °FPassing clouds.8 mph70%29.71 "HgN/A
5:00 PM88 °FPassing clouds.8 mph66%29.71 "HgN/A
4:30 PM88 °FPassing clouds.7 mph62%29.71 "HgN/A
4:00 PM90 °FPassing clouds.9 mph59%29.71 "HgN/A
3:30 PM90 °FPassing clouds.7 mph59%29.71 "HgN/A
3:00 PM90 °FPassing clouds.7 mph63%29.71 "HgN/A
2:30 PM90 °FScattered clouds.7 mph63%29.74 "HgN/A
2:00 PM88 °FScattered clouds.8 mph66%29.74 "HgN/A
1:30 PM88 °FScattered clouds.9 mph70%29.77 "HgN/A
1:00 PM90 °FScattered clouds.6 mph63%29.77 "HgN/A
12:30 PM90 °FScattered clouds.7 mph63%29.80 "HgN/A
12:00 PM90 °FScattered clouds.8 mph63%29.80 "HgN/A
Weather by CustomWeather, © 2016

See weather overviewHow to use our weather pages